Simultaneous Nadir Overpasses (SNOs) Predictions

Prediction of SNOs between NOAA-19 and TERRA Satellite Orbit:

Table of predicted SNOs for the next 14.0 days since TLE Epoch: 1/23/2022
Index Date (NOAA-19) Time (NOAA-19) Lat,Lon (NOAA-19) SZA (NOAA-19 ) Date (TERRA) Time (TERRA) Lat,Lon (TERRA) SZA (TERRA ) Distance(km) Time Diff (sec)
1 01/23/2022 19:57:01 -80.62, 96.02 78.74 01/23/2022 19:57:38 -80.63, 96.14 78.71 2.28 37
2 01/23/2022 20:48:04 80.62, -96.66 101.26 01/23/2022 20:47:05 80.60, -96.50 101.24 3.45 59
3 01/26/2022 01:30:07 80.63,-167.49 100.70 01/26/2022 01:31:18 80.62,-167.36 100.73 2.66 71
4 01/26/2022 02:21:02 -80.61, 0.30 79.29 01/26/2022 02:20:45 -80.62, 0.26 79.29 0.95 17
5 01/28/2022 07:54:09 80.62, 96.91 100.13 01/28/2022 07:54:25 80.64, 97.03 100.16 2.86 16
6 01/28/2022 08:45:05 -80.62, -95.80 79.88 01/28/2022 08:43:53 -80.61, -95.67 79.91 2.86 72
7 01/30/2022 13:27:08 -80.63,-166.46 80.48 01/30/2022 13:28:07 -80.62,-166.58 80.48 2.26 59
8 01/30/2022 14:18:12 80.62, 0.92 99.52 01/30/2022 14:17:33 80.62, 1.05 99.51 2.38 39
9 02/01/2022 19:51:10 -80.62, 97.76 81.11 02/01/2022 19:51:14 -80.63, 97.74 81.10 1.15 4
10 02/04/2022 01:24:18 80.64,-165.72 98.23 02/04/2022 01:24:54 80.64,-165.65 98.25 1.40 36



Historial Predications of SNOs between NOAA-19 and TERRA
